Location: Unspecified
(0.0000°N, 0.0000°E)
Time: 03:37:08
(UTC+02:00)

ASC 2 Rocket - Visible Passes

Search period start: 27 May 2015 00:00
Search period end: 06 June 2015 00:00
Orbit: 556 x 2347 km, 24.0° (Epoch: 25 May)

Date Brightness Start Highest point End Pass type
(mag) Time Alt. Az. Time Alt. Az. Time Alt. Az.
27 May 7.4 02:40:03 17° ENE 02:40:03 17° ENE 02:42:13 10° ENE visible
27 May 5.9 04:34:50 64° N 04:34:50 64° N 04:47:02 10° NE visible
27 May 6.6 06:29:39 14° WNW 06:40:03 33° NNW 06:49:41 10° NE visible
27 May 6.4 21:07:46 10° S 21:09:02 10° S 21:10:34 10° SSE visible
28 May 6.5 03:32:26 40° NE 03:32:26 40° NE 03:39:56 10° ENE visible
28 May 6.3 05:27:14 35° WNW 05:31:57 43° NNW 05:43:34 10° NE visible
28 May 6.9 07:28:49 10° WNW 07:38:21 22° NNW 07:45:53 10° NNE visible
28 May 6.4 22:02:32 10° SSW 22:03:47 13° S 22:03:47 13° S visible
29 May 7.4 02:29:59 17° ENE 02:29:59 17° ENE 02:32:08 10° ENE visible
29 May 6.1 04:24:47 54° N 04:24:47 54° N 04:36:55 10° NE visible
29 May 6.8 06:19:35 12° WNW 06:30:17 29° NNW 06:39:59 10° NE visible
30 May 6.6 03:22:18 38° NE 03:22:18 38° NE 03:29:41 10° NE visible
30 May 6.6 05:17:06 31° NW 05:21:57 37° NNW 05:33:36 10° NE visible
30 May 7.1 07:19:25 10° NW 07:28:57 21° N 07:36:42 10° NNE visible
30 May 6.2 21:53:17 10° SSW 21:54:46 13° S 21:54:46 13° S visible
31 May 7.4 02:19:48 16° ENE 02:19:48 16° ENE 02:21:51 10° ENE visible
31 May 6.3 04:14:36 46° N 04:14:36 46° N 04:26:41 10° NE visible
31 May 7.0 06:09:23 10° WNW 06:20:37 26° NNW 06:30:20 10° NE visible
01 Jun 6.8 03:12:04 34° NE 03:12:04 34° NE 03:19:17 10° NE visible
01 Jun 6.7 05:06:51 27° NW 05:12:05 32° NNW 05:23:34 10° NE visible
01 Jun 7.2 07:09:53 10° NW 07:19:34 21° N 07:27:42 10° NE visible
01 Jun 6.0 21:43:52 10° SSW 21:45:56 16° S 21:45:56 16° S visible
02 Jun 7.5 02:09:31 15° ENE 02:09:31 15° ENE 02:11:21 10° ENE visible
02 Jun 6.5 04:04:19 39° NNW 04:04:19 39° NNW 04:16:21 10° NE visible
02 Jun 7.1 06:00:07 10° WNW 06:11:03 25° N 06:20:49 10° NE visible
02 Jun 6.5 22:38:51 10° SW 22:39:04 11° SW 22:39:04 11° SW visible
03 Jun 6.9 03:01:46 31° NNE 03:01:46 31° NNE 03:08:43 10° NE visible
03 Jun 6.9 04:56:33 23° NW 05:02:20 29° NNW 05:13:34 10° NE visible
03 Jun 7.3 07:00:09 10° NW 07:10:13 22° N 07:18:53 10° NE visible
03 Jun 5.6 21:34:23 10° SSW 21:37:24 19° S 21:37:24 19° S visible
04 Jun 7.5 01:59:13 14° NE 01:59:13 14° NE 02:00:42 10° NE visible
04 Jun 6.7 03:54:00 34° NNW 03:54:00 34° NNW 04:05:58 10° NE visible
04 Jun 7.2 05:50:51 10° NW 06:01:32 24° N 06:11:27 10° NE visible
04 Jun 5.7 20:31:20 10° S 20:32:49 11° SSE 20:34:43 10° SE visible
04 Jun 6.0 22:29:27 10° SW 22:30:41 17° SW 22:30:41 17° SW visible
05 Jun 7.0 02:51:27 27° NNE 02:51:27 27° NNE 02:58:04 10° NE visible
05 Jun 7.0 04:46:15 19° NW 04:52:43 26° N 05:03:40 10° NE visible
05 Jun 7.3 06:50:13 10° NW 07:00:48 24° N 07:10:11 10° NE visible
05 Jun 5.1 21:24:54 10° SSW 21:29:11 25° SSE 21:29:11 25° SSE visible
